SCOUT A DEB, 2141

Orbit data source: Space-Track

SCOUT A DEB, 2141 is space debris in LEO originally from a launch on Fri, 28 Jan 1966 UTC launched from the Air Force Western Test Range (AFWTR). Debris objects in space refer to the collection of defunct objects orbiting the Earth. Examples of debris include non-operational satellites, rocket bodies, and fragments generated from explosions, collisions, or faulty payload assembly.

Loading next visibility...
Identifier
2141, 1966-005D
Orbit
LEO
Last TLE update
1 day ago
Origin
Manufacturer
Unknown
Mission
Spacecraft
Bus & Motor
Unknown
Mass
Unknown
Launch date (UTC)
1966-01-28 (59 years ago)
Launch vehicle
Unknown
Launch site
Air Force Western Test Range (AFWTR)
Object type
Payload
Rocket body
Debris
Shape & HBR
Unknown
Radar Cross Section
Small (<0.1 m²)

Expand to show TLE details & history

TLE from 1 day ago
0 SCOUT A DEB
1 02141U 66005D   25128.34804483  .00000807  00000-0  46658-3 0  9994
2 02141  90.2258 248.0507 0113050 266.6310  92.1935 14.05261437 11718
Epoch: 2025-05-08T08:21Z
Definitive object data (Epoch: 2025-05-08T08:21:11.073Z)
Latitude
-0°
Longitude
-103.66527°
Altitude
882.731 km
Speed
7.409 km/s
True Right ascension
16h 32m 12s
True Declination
0° 00' 00"
Sunlit
Object was in full shadow at TLE epoch
Visualization TLE readout
Latitude
64.9458°
Longitude
-104.12056°
Altitude
964.591 km
Speed
7.336 km/s
Apparent Right ascension
05h 09m 12s
Apparent Declination
54° 53' 47"
Sunlit
Object is in daylight
Visualization observer readout
Local Sidereal Time
16:44:34
Azimuth
356.45° N
Elevation
4.959°
Doppler factor
1
Orbital elements
Apogee altitude
954.571 km
Perigee altitude
790.632 km
Semi-major axis
7,250.739 km
Eccentricity
0.011305
Inclination
90.2258°
RAAN
248.0507°
Arg. of periapsis
266.631°
True anomaly
93.4872°
Mean anomaly
92.1935°
Eccentric anomaly
92.84043°
Mean motion
3.51536 °/min
BSTAR
0.00046658
Orbital period
102.41 mins
Loading maneuver chart data...
Loading SW <> Apogee altitude chart data...
Loading historical data...
Loading historical data...
Loading historical data...
Loading historical data...
Loading historical data...
Loading historical data...
Loading historical data...

SCOUT A DEB Visibility forecast

Observer location: undefined°, undefined°

Span
Click to sort rows by Start time (UTC) header in descending order
Start Az.
Max El. time (UTC)
Max El. Az.
Max El.
End time (UTC)
End Az.
7 mins2025-05-09 19:09:23.047Z44.137° NE2025-05-09 19:12:23.047Z83.266° E21.525°2025-05-09 19:16:23.047Z130.099° SE
9 mins2025-05-09 20:50:23.047Z346.216° N2025-05-09 20:54:23.047Z291.736° WNW36.068°2025-05-09 20:59:23.047Z210.317° SW
10 mins2025-05-10 08:19:23.047Z180.434° SSW2025-05-10 08:23:23.047Z224.244° SW44.529°2025-05-10 08:29:23.047Z355.652° N
|